Location: Unspecified
(0.0000°N, 0.0000°E)
Time: 15:39:00
(UTC+00:00)

Vanguard 2 - All Passes

Search period start: 13 December 2018 00:00
Search period end: 23 December 2018 00:00
Orbit: 553 x 2939 km, 32.9° (Epoch: 12 December)

Date Brightness Start Highest point End Pass type
(mag) Time Alt. Az. Time Alt. Az. Time Alt. Az.
13 Dec - 01:11:13 10° NNW 01:20:32 25° NE 01:32:38 10° E visible
13 Dec - 03:18:35 10° NW 03:33:04 66° NE 03:50:55 10° ESE visible
13 Dec - 05:29:47 10° WNW 05:46:25 58° SW 06:02:53 10° SE visible
13 Dec - 07:47:47 10° WSW 08:00:36 24° SSW 08:11:29 10° SSE daylight
13 Dec - 14:38:09 10° SSW 14:42:25 20° SSE 14:45:45 10° ESE daylight
13 Dec - 16:46:51 10° WSW 16:51:05 45° NW 16:54:51 10° NE daylight
14 Dec - 01:28:28 10° NNW 01:38:59 33° NE 01:53:08 10° E visible
14 Dec - 03:36:30 10° NW 03:51:20 82° NE 04:09:31 10° ESE visible
14 Dec - 05:48:51 10° W 06:04:56 46° SSW 06:20:39 10° SE daylight
14 Dec - 08:09:04 10° WSW 08:19:45 19° SSW 08:28:55 10° SSE daylight
14 Dec - 14:55:26 10° SW 15:00:47 33° SSE 15:04:43 10° E daylight
14 Dec - 17:05:40 10° W 17:09:03 22° NW 17:12:11 10° NNE daylight
14 Dec - 23:42:12 10° NNE 23:45:18 11° NNE 23:48:46 10° NE night (unlit)
15 Dec - 01:45:53 10° NNW 01:57:14 43° NE 02:12:59 10° ESE visible
15 Dec - 03:54:38 10° WNW 04:09:39 81° SW 04:27:49 10° SE visible
15 Dec - 06:08:21 10° W 06:23:38 37° SSW 06:38:20 10° SSE daylight
15 Dec - 08:30:55 10° SW 08:39:11 15° SSW 08:46:26 10° SSE daylight
15 Dec - 13:04:50 10° SSW 13:08:50 14° SSE 13:12:05 10° SE daylight
15 Dec - 15:13:11 10° SW 15:18:59 62° SSE 15:23:08 10° ENE daylight
15 Dec - 17:25:43 10° NW 17:27:05 11° NW 17:28:25 10° NNW daylight
15 Dec - 23:57:54 10° N 00:03:57 17° NE 00:11:36 10° ENE visible
16 Dec - 02:03:27 10° NW 02:15:24 56° NE 02:32:18 10° ESE visible
16 Dec - 04:13:03 10° WNW 04:28:03 66° SW 04:45:54 10° SE visible
16 Dec - 06:28:24 10° W 06:42:34 29° SSW 06:55:59 10° SSE daylight
16 Dec - 08:52:58 10° SW 08:58:52 13° SSW 09:04:09 10° S daylight
16 Dec - 13:21:42 10° SSW 13:27:35 21° SSE 13:31:52 10° ESE daylight
16 Dec - 15:31:18 10° WSW 15:37:00 70° NW 15:41:06 10° NE daylight
17 Dec - 00:14:38 10° NNW 00:22:20 23° NE 00:32:51 10° E visible
17 Dec - 02:21:11 10° NW 02:33:32 71° NE 02:51:10 10° ESE visible
17 Dec - 04:31:45 10° WNW 04:46:36 53° SSW 05:03:48 10° SE visible
17 Dec - 06:49:01 10° WSW 07:01:46 23° SSW 07:13:40 10° SSE daylight
17 Dec - 09:14:29 10° SSW 09:18:41 11° S 09:22:31 10° S daylight
17 Dec - 11:30:02 10° SSW 11:34:12 13° S 11:37:43 10° SE daylight
17 Dec - 13:39:04 10° SW 13:46:09 32° SSE 13:50:52 10° E daylight
17 Dec - 15:49:53 10° WSW 15:54:54 35° NW 15:58:42 10° NNE daylight
18 Dec - 00:31:45 10° NNW 00:40:30 32° NE 00:53:14 10° E visible
18 Dec - 02:39:07 10° NW 02:51:44 89° NE 03:09:42 10° SE visible
18 Dec - 04:50:52 10° W 05:05:19 42° SSW 05:21:37 10° SE visible
18 Dec - 07:10:09 10° WSW 07:21:15 19° SSW 07:31:28 10° SSE daylight
18 Dec - 09:34:26 10° SSW 09:38:31 11° S 09:42:14 10° SSE daylight
18 Dec - 11:46:54 10° SSW 11:53:19 17° SSE 11:58:14 10° SE daylight
18 Dec - 13:56:47 10° SW 14:04:31 52° SSE 14:09:24 10° ENE daylight
18 Dec - 16:09:06 10° W 16:12:44 19° NW 16:15:46 10° N daylight
19 Dec - 00:49:05 10° NNW 00:58:32 44° NE 01:12:57 10° ESE visible
19 Dec - 02:57:17 10° WNW 03:10:03 74° SW 03:27:58 10° SE visible
19 Dec - 05:10:25 10° W 05:24:16 33° SSW 05:39:22 10° SSE visible
19 Dec - 07:31:35 10° SW 07:41:00 16° SSW 07:49:35 10° SSE daylight
19 Dec - 09:52:48 10° SSW 09:58:16 13° S 10:02:57 10° SSE daylight
19 Dec - 12:04:10 10° SSW 12:12:16 23° SSE 12:17:53 10° ESE daylight
19 Dec - 14:14:50 10° SW 14:22:41 86° SE 14:27:32 10° ENE daylight
19 Dec - 23:02:02 10° N 23:06:27 15° NE 23:11:53 10° ENE night (unlit)
20 Dec - 01:06:39 10° NW 01:16:31 59° NE 01:32:09 10° ESE visible
20 Dec - 03:15:45 10° WNW 03:28:32 58° SSW 03:46:01 10° SE visible
20 Dec - 05:30:29 10° WSW 05:43:27 27° SSW 05:57:10 10° SSE visible
20 Dec - 07:52:49 10° SW 08:00:56 14° S 08:08:16 10° SSE daylight
20 Dec - 10:10:36 10° SSW 10:17:49 15° S 10:23:38 10° SE daylight
20 Dec - 12:21:41 10° SW 12:31:00 33° SSE 12:36:58 10° E daylight
20 Dec - 14:33:15 10° WSW 14:40:37 56° NW 14:45:20 10° NE daylight
20 Dec - 23:18:26 10° N 23:24:35 22° NE 23:33:08 10° E visible
21 Dec - 01:24:23 10° NW 01:34:35 77° NE 01:50:55 10° ESE visible
21 Dec - 03:34:31 10° W 03:47:13 46° SSW 04:03:56 10° SE visible
21 Dec - 05:51:02 10° WSW 06:02:55 22° SSW 06:15:06 10° SSE daylight
21 Dec - 08:13:15 10° SSW 08:20:56 14° S 08:27:46 10° SSE daylight
21 Dec - 10:28:13 10° SSW 10:37:09 20° SSE 10:43:52 10° ESE daylight
21 Dec - 12:39:26 10° SW 12:49:32 48° SSE 12:55:38 10° ENE daylight
21 Dec - 14:52:07 10° WSW 14:58:26 32° NW 15:02:47 10° NNE daylight
21 Dec - 23:35:25 10° NNW 23:42:33 32° NE 23:53:20 10° E visible
22 Dec - 01:42:22 10° WNW 01:52:46 83° SW 02:09:22 10° SE visible
22 Dec - 03:53:42 10° W 04:06:06 36° SSW 04:21:46 10° SE visible
22 Dec - 06:11:58 10° SW 06:22:40 18° SSW 06:33:19 10° SSE daylight
22 Dec - 08:32:37 10° SSW 08:40:53 15° S 08:48:01 10° SE daylight
22 Dec - 10:45:48 10° SSW 10:56:16 25° SSE 11:03:35 10° ESE daylight
22 Dec - 12:57:26 10° SW 13:07:51 72° SSE 13:13:54 10° ENE daylight
22 Dec - 15:11:40 10° W 15:16:13 19° NW 15:19:43 10° N daylight
